sat.trackr.live / text

‹ back to catalog

STARLINK-33592

NORAD 62765 · 2025-015H

PAYLOAD ACTIVE UNKNOWN

§ Identity

Operator
Country
US
Launch date
2025-01-21
Launch site
AFWTR
Launch vehicle
Mass (kg)
RCS (m²)

Purposes: comms

External: N2YO · Heavens-Above · Gunter

§ Orbital elements

Epoch: 2026-05-24T19:13:16.889952Z

Period
93.85 min
Inclination
53.1594°
Eccentricity
0.0000544
Mean motion
15.34394815 rev/d
Perigee alt
462.3 km
Apogee alt
463.1 km
Semi-major
6,840.9 km
B*
4.9083e-4
RAAN
328.2494°
Arg perigee
33.7510°
Mean anomaly
326.3528°
Rev number
7,601

§ Raw data

STARLINK-335921 62765U 25015H   26144.80088993  .00016241  00000+0  49083-3 0  99912 62765  53.1594 328.2494 0000544  33.7510 326.3528 15.34394815 76015

JSON: /api/v1/satellites/62765 · /tle

For live sub-satellite position, see the globe view (requires WebGL).

§ Visibility from observer

Set your observer location to see the next 7 days of passes ≥ 10°. The values pass through the URL so the page stays shareable.

No JS? Fill the form by hand. The geolocation button needs JavaScript.